Weather History for Mosinee, WI

Change the Weather History Date:

Wednesday, November 21, 2012

  Actual Average Record
Temperature  
Mean Temperature 42 °F -  
Max Temperature 57 °F 36 °F 57 °F (2012)
Min Temperature 28 °F 21 °F -2 °F (2014)
Degree Days  
Heating Degree Days 22    
Moisture  
Dew Point 37 °F    
Average Humidity 92    
Maximum Humidity 100    
Minimum Humidity 58    
Precipitation  
Precipitation 0.00 in - - ()
Sea Level Pressure  
Sea Level Pressure 30.02 in    
Wind  
Wind Speed 4 mph (South)    
Max Wind Speed 14 mph    
Max Gust Speed 20 mph    
Visibility 4 miles    
Events Fog , Snow    
Averages and records for this station are not official NWS values.
T = Trace of Precipitation, MM = Missing Value Source: NWS Daily Summary

Daily Weather History Graph

Daily Weather History Graph

Search for Another Location

Airport:

Trip Planner

Search our weather history database for the weather conditions in past years. The results will help you decide how hot, cold, wet, or windy it might be!

Date:

Astronomy

Nov. 21, 2012 Rise Set
Actual Time 7:04 AM CST 4:24 PM CST
Civil Twilight 6:32 AM CST 4:56 PM CST
Nautical Twilight 5:56 AM CST 5:32 PM CST
Astronomical Twilight 5:21 AM CST 6:07 PM CST
Moon 12:55 PM CST (11/21) 12:07 AM CST (11/21)
Length of Visible Light 10h 24m
Length of Day
9h 20m
First Quarter, 62% of the Moon is Illuminated
Nov 21
First Quarter
Nov 28
Full
Dec 6
Last Quarter
Dec 13
New
Dec 19
First Quarter

Hourly Weather History & Observations

Time (CST) Temp. Windchill Dew Point Humidity Pressure Visibility Wind Dir Wind Speed Gust Speed Precip Events Conditions
12:15 AM 32.0 °F - 32.0 °F 100% 30.13 in 0.2 mi Calm Calm - N/A Fog Fog
12:35 AM 32.0 °F - 32.0 °F 100% 30.12 in 0.2 mi Calm Calm - N/A Snow Light Snow
1:15 AM 32.0 °F - 32.0 °F 100% 30.12 in 0.2 mi Calm Calm - N/A Snow Light Snow
1:35 AM 30.2 °F - 30.2 °F 100% 30.12 in 0.2 mi Calm Calm - N/A Snow Light Snow
1:55 AM 30.2 °F - 30.2 °F 100% 30.13 in 0.2 mi Calm Calm - N/A Fog Light Freezing Fog
2:15 AM 30.2 °F - 30.2 °F 100% 30.13 in 0.2 mi Calm Calm - N/A Snow Light Snow
2:35 AM 30.2 °F 26.7 °F 30.2 °F 100% 30.12 in 0.2 mi SE 3.5 mph - N/A Snow Light Snow
2:55 AM 28.4 °F - 28.4 °F 100% 30.12 in 0.2 mi Calm Calm - N/A Fog Light Freezing Fog
3:15 AM 30.2 °F - 30.2 °F 100% 30.12 in 0.2 mi Calm Calm - N/A Snow Light Snow
3:35 AM 30.2 °F - 30.2 °F 100% 30.12 in 0.2 mi Calm Calm - N/A Snow Light Snow
3:55 AM 30.2 °F 25.4 °F 30.2 °F 100% 30.12 in 0.2 mi SSE 4.6 mph - N/A Fog Light Freezing Fog
4:15 AM 30.2 °F - 30.2 °F 100% 30.12 in 0.2 mi Calm Calm - N/A Fog Light Freezing Fog
4:35 AM 30.2 °F - 30.2 °F 100% 30.11 in 0.2 mi Calm Calm - N/A Fog Light Freezing Fog
5:45 AM 28.4 °F 23.3 °F 28.4 °F 100% 30.10 in - SE 4.6 mph - N/A Fog Light Freezing Fog
6:45 AM 30.2 °F 25.4 °F 30.2 °F 100% - 0.2 mi SE 4.6 mph - N/A Fog Light Freezing Fog
7:45 AM 30.2 °F 24.3 °F 30.2 °F 100% 30.08 in 0.5 mi SSE 5.8 mph - N/A Fog Light Freezing Fog
8:18 AM 32.0 °F 26.4 °F 32.0 °F 100% 30.07 in 0.2 mi SSE 5.8 mph - N/A Fog Fog
8:45 AM 32.0 °F 25.6 °F 32.0 °F 100% 30.07 in 3.0 mi SSE 6.9 mph - N/A   Clear
9:45 AM 39.2 °F 31.2 °F 39.2 °F 100% 30.05 in 4.0 mi South 13.8 mph 19.6 mph N/A   Clear
11:45 AM 46.4 °F 41.1 °F 46.4 °F 100% 30.01 in 7.0 mi South 11.5 mph 17.3 mph N/A   Clear
12:55 PM 51.8 °F - 42.8 °F 71% 29.99 in 7.0 mi South 12.7 mph - N/A   Clear
1:55 PM 55.4 °F - 42.8 °F 63% 29.96 in 10.0 mi South 8.1 mph - N/A   Clear
2:45 PM 57.2 °F - 42.8 °F 59% 29.94 in 10.0 mi South 12.7 mph - N/A   Clear
3:45 PM 55.4 °F - 41.0 °F 58% 29.94 in 10.0 mi South 13.8 mph - N/A   Clear
4:50 PM 48.2 °F - 41.0 °F 76% 29.94 in 10.0 mi South 9.2 mph - N/A   Clear
5:45 PM 44.6 °F 40.2 °F 39.2 °F 81% 29.94 in 10.0 mi South 8.1 mph - N/A   Clear
6:45 PM 46.4 °F 41.9 °F 41.0 °F 81% 29.93 in 10.0 mi South 9.2 mph - N/A   Clear
8:45 PM 48.2 °F - 42.8 °F 82% 29.92 in 10.0 mi South 11.5 mph - N/A   Clear
9:15 PM 46.4 °F 41.1 °F 42.8 °F 87% 29.91 in 7.0 mi South 11.5 mph - N/A   Clear
9:35 PM 44.6 °F 38.8 °F 42.8 °F 93% 29.91 in 7.0 mi South 11.5 mph - N/A   Clear
9:45 PM 44.6 °F 38.8 °F 42.8 °F 93% 29.91 in 7.0 mi South 11.5 mph - N/A   Clear
9:55 PM 44.6 °F 38.8 °F 42.8 °F 93% 29.91 in 7.0 mi South 11.5 mph - N/A   Clear
10:15 PM 44.6 °F 38.8 °F 42.8 °F 93% 29.91 in 7.0 mi South 11.5 mph - N/A   Clear
10:35 PM 46.4 °F 41.1 °F 42.8 °F 87% 29.91 in 7.0 mi South 11.5 mph - N/A   Clear
10:55 PM 46.4 °F 40.7 °F 42.8 °F 87% 29.90 in 7.0 mi South 12.7 mph - N/A   Clear
11:15 PM 44.6 °F 38.4 °F 42.8 °F 93% 29.90 in 7.0 mi South 12.7 mph - N/A   Clear
11:35 PM 44.6 °F 38.8 °F 42.8 °F 93% 29.89 in 7.0 mi South 11.5 mph 18.4 mph N/A   Clear
11:55 PM 44.6 °F 38.8 °F 41.0 °F 87% 29.89 in 7.0 mi South 11.5 mph - N/A   Clear